User: anonymous   Login
Location: Unspecified
(0.0000°N, 0.0000°E)
Time: 15:11:13
(UTC+00:00)
Language:

NADEZHDA 7 - Orbit

View from above orbital plane
View from above orbital plane
View from above satellite
View from above satellite

Ground track
Ground track

The orbit data is extracted from the following two-line orbital elements,

1 27534U 02046A   18052.11279355  .00000023  00000-0  81810-5 0  9990
2 27534  82.9328  55.2201 0037275 133.0372 293.3481 13.72695041771837
Epoch (UTC): 21 February 2018 02:42:25
Eccentricity: 0.0037275
inclination: 82.9328°
perigee height: 962 km
apogee height: 1017 km
right ascension of ascending node: 55.2201°
argument of perigee: 133.0372°
revolutions per day: 13.72695041
mean anomaly at epoch: 293.3481°
orbit number at epoch: 77183

The dashed part of the orbit path shows where the satellite is in the earth's shadow,  

DLR